logo tempoitalia

Diretta Meteo Asyut, Egittolunedì 31 agosto ore 08:00

Mappa
Sereno 24 °C Sereno 24 Ore: T.min 22 T.max 33
Ponente Nord Km/h 5.5 Punto di rugiada: 14 °C Umidità: 53% Visibilità: 10 Km
Il sole sorge alle: 06:34 Il sole tramonta alle: 19:17
31 Agosto 2026 08:00 tempo osservato: Sereno Sereno 24 53 1014 vento: Nord N 5.5
31 Agosto 2026 07:00 tempo osservato: Sereno Sereno 22 60 1014 vento: Nord N/NO 7.4
31 Agosto 2026 06:00 tempo osservato: Sereno Sereno 23 56 1014 vento: Nord N 5.5
31 Agosto 2026 05:00 tempo osservato: Sereno Sereno 23 53 1014 vento: Nord N 9.3
31 Agosto 2026 04:00 tempo osservato: Sereno Sereno 24 50 1014 vento: Nord N/NO 9.3
31 Agosto 2026 03:00 tempo osservato: Sereno Sereno 25 47 1014 vento: Nord N 11.1
31 Agosto 2026 02:00 tempo osservato: Sereno Sereno 25 47 1014 vento: Nord N 5.5
31 Agosto 2026 01:00 tempo osservato: Sereno Sereno 26 44 1014 vento: Nord N 3.7
31 Agosto 2026 00:00 tempo osservato: Sereno Sereno 27 44 1014 vento: Nord N 3.7
30 Agosto 2026 23:00 tempo osservato: Sereno Sereno 27 47 1013 vento: Nord N 13
30 Agosto 2026 22:00 tempo osservato: Sereno Sereno 28 45 1013 vento: Nord N/NO 11.1
30 Agosto 2026 21:00 tempo osservato: Sereno Sereno 29 42 1013 vento: Nord N 14.8
30 Agosto 2026 20:00 tempo osservato: Sereno Sereno 30 42 1012 vento: Nord N 18.5
30 Agosto 2026 19:00 tempo osservato: Sereno Sereno 31 40 1012 vento: Nord N/NO 22.2
30 Agosto 2026 18:00 tempo osservato: Sereno Sereno 32 38 1012 vento: Nord N 24
30 Agosto 2026 17:00 tempo osservato: Sereno Sereno 32 38 1012 vento: Nord N 16.7
30 Agosto 2026 16:00 tempo osservato: Sereno Sereno 33 36 1012 vento: Nord N/NE 16.7
30 Agosto 2026 15:00 tempo osservato: Sereno Sereno 32 38 1013 vento: Nord N 18.5
30 Agosto 2026 14:00 tempo osservato: Sereno Sereno 32 38 1013 vento: Nord N/NE 13
30 Agosto 2026 13:00 tempo osservato: Sereno Sereno 31 40 1014 vento: Nord N/NE 14.8
30 Agosto 2026 12:00 tempo osservato: Sereno Sereno 29 45 1014 vento: Nord NE 16.7
30 Agosto 2026 11:00 tempo osservato: Sereno Sereno 27 50 1014 vento: Nord N 13
30 Agosto 2026 10:00 tempo osservato: Sereno Sereno 25 57 1014 vento: Nord N 18.5
30 Agosto 2026 09:00 tempo osservato: Sereno Sereno 24 43 1014 vento: Nord N 18.5